K7TUS-6 Weather Reports


Display with metric or nautical units.
time (UTC)temp
F
wind
direction
speed
MPH
gust
MPH
rain 1hr
in
rain 24hr
in
rain mn
in
humidity
%
barometer
mb
20260906042004 68 84 2.0 2.0 0.00 0.00 0.00 20 992.5
20260906032504 65 89 1.0 1.0 0.00 0.00 0.00 19 992.2
20260906025005 62 339 3.0 4.0 0.00 0.00 0.00 28 990.4
20260906023503 62 337 2.0 3.0 0.00 0.00 0.00 29 992.0
20260906021006 60 342 4.0 6.0 0.00 0.00 0.00 33 991.4
20260906015505 60 338 6.0 8.0 0.00 0.00 0.00 35 990.8
20260906013508 60 335 8.0 11.0 0.00 0.00 0.00 37 990.3
20260906012007 60 340 7.0 9.0 0.00 0.00 0.00 36 991.4
20260906010005 61 335 10.0 13.0 0.00 0.00 0.00 35 991.0
20260906004504 62 339 6.0 9.0 0.00 0.00 0.00 34 991.8
20260906004004 62 328 8.0 9.0 0.00 0.00 0.00 32 992.1
20260906003003 62 329 8.0 12.0 0.00 0.00 0.00 31 992.0
20260906001507 63 335 9.0 11.0 0.00 0.00 0.00 30 992.7
20260906000005 65 339 5.0 10.0 0.00 0.00 0.00 28 991.6
20260905233008 69 350 1.0 4.0 0.00 0.00 0.00 26 991.9
20260905232507 69 342 5.0 9.0 0.00 0.00 0.00 21 991.9
20260905231006 68 342 4.0 6.0 0.00 0.00 0.00 27 992.3
20260905222507 71 56 1.0 3.0 0.00 0.00 0.00 24 991.3
20260905215003 68 351 3.0 5.0 0.00 0.00 0.00 25 992.4
20260905214502 67 283 2.0 3.0 0.00 0.00 0.00 26 992.5
20260905214008 67 75 1.0 2.0 0.00 0.00 0.00 24 992.7
20260905213508 68 11 1.0 2.0 0.00 0.00 0.00 23 992.9
20260905212006 69 50 2.0 5.0 0.00 0.00 0.00 20 992.0
20260905211005 73 11 1.0 2.0 0.00 0.00 0.00 17 992.2
20260905210004 70 1 2.0 4.0 0.00 0.00 0.00 19 992.4
20260905204503 69 3 2.0 4.0 0.00 0.00 0.00 17 993.6
20260905204003 69 26 2.0 4.0 0.00 0.00 0.00 19 993.1
20260905203533 69 56 1.0 2.0 0.00 0.00 0.00 18 994.2
20260905202508 69 98 2.0 2.0 0.00 0.00 0.00 17 992.3
20260905201007 72 35 2.0 3.0 0.00 0.00 0.00 14 992.4
20260905193008 77 74 2.0 3.0 0.00 0.00 0.00 10 994.2
20260905185504 78 75 2.0 2.0 0.00 0.00 0.00 8 994.4
20260905183503 82 74 3.0 4.0 0.00 0.00 0.00 5 993.8
20260905183002 81 65 2.0 3.0 0.00 0.00 0.00 6 994.6
20260905182007 79 41 2.0 3.0 0.00 0.00 0.00 7 993.9
20260905180506 77 52 2.0 4.0 0.00 0.00 0.00 7 993.2
20260905180005 76 162 2.0 3.0 0.00 0.00 0.00 8 993.8
20260905164008 75 71 1.0 2.0 0.00 0.00 0.00 10 994.3
20260905154507 75 102 5.0 5.0 0.00 0.00 0.00 9 993.3
20260905154007 75 130 2.0 2.0 0.00 0.00 0.00 10 992.3
20260905145007 75 108 2.0 3.0 0.00 0.00 0.00 7 991.0
20260905134504 68 75 1.0 2.0 0.00 0.00 0.00 13 992.0
20260905124003 66 135 1.0 2.0 0.00 0.00 0.00 17 991.2
20260905115003 59 358 3.0 3.0 0.00 0.00 0.00 32 991.0
20260905113507 58 348 4.0 5.0 0.00 0.00 0.00 34 991.4
20260905113031 58 342 6.0 6.0 0.00 0.00 0.00 34 991.1
20260905105503 57 344 7.0 8.0 0.00 0.00 0.00 38 989.2
20260905105008 58 348 6.0 7.0 0.00 0.00 0.00 35 990.5
20260905101004 61 357 3.0 4.0 0.00 0.00 0.00 25 991.3
20260905100002 61 358 3.0 3.0 0.00 0.00 0.00 23 992.4
20260905093506 60 349 3.0 4.0 0.00 0.00 0.00 25 991.7
20260905091509 62 360 2.0 3.0 0.00 0.00 0.00 23 991.2
20260905084006 62 2 3.0 3.0 0.00 0.00 0.00 21 991.6
20260905063010 62 166 1.0 2.0 0.00 0.00 0.00 26 991.0
20260905061008 63 24 1.0 2.0 0.00 0.00 0.00 23 992.5
20260905055506 63 201 1.0 2.0 0.00 0.00 0.00 23 992.1